STARLINK-37571, 69043

Orbit data source: Space-Track

STARLINK-37571, 69043 is a payload satellite owned by SpaceX/Seattle (US) in SSO that was launched on Wed, 06 May 2026 UTC via an FALCON 9 launch vehicle from the Air Force Western Test Range (AFWTR). Payload-class satellites include a variety of spacecraft equipped with specific instruments for various scientific and technological missions. These include communications satellites like Starlink; space stations such as the ISS; scientific satellites like the Hubble; Earth observation satellites from companies like Planet Labs, Umbra, and HawkEye 360; GPS; miniature CubeSats for education and research; and military/defense satellites.

Loading next visibility...
Identifier
69043, 2026-101U
Orbit
SSO
Country
Flag of USUS
Related business
Manufacturer
SpaceX/Seattle
Mission
Operational spacecraft
Bus & Motor
STARLINK V2MO, Unknown motor
Mass
575 kg wet, ~530 kg dry
Launch date (UTC)
2026-05-06 (1 month ago)
Launch vehicle
FALCON 9
Launch site
Air Force Western Test Range (AFWTR)
Object type
Payload
Rocket body
Debris
Shape & HBR
Unknown
Radar Cross Section
Large (>1 m²)

Expand to show TLE details & history
Last TLE update: 1 week ago

TLE from 1 week ago
0 STARLINK-37571
1 69043U 26101U   26155.11076432  .00068245  00000-0  12454-2 0  9998
2 69043  97.2840  10.0694 0001641 109.4919 250.6509 15.49193502  4560
Epoch: 2026-06-04T02:39Z
TLE epoch observation values (Epoch: 2026-06-04T02:39:30.037Z)
Latitude
-0.00007°
Longitude
77.63453°
Altitude
422.587 km
Speed
7.657 km/s
True Right ascension
00h 40m 16s
True Declination
0° 00' 00"
Sunlit
Object was in daylight at epoch
Visualization orbit readout
Latitude
Unknown
Longitude
Unknown
Altitude
Unknown
Speed
Unknown
Apparent Right ascension
Unknown
Apparent Declination
Unknown
Sunlit
N/A
Visualization observer readout
Local Sidereal Time
03:26:26
Azimuth
Unknown
Elevation
Unknown
Doppler factor
Unknown
Orbital elements
Apogee altitude
417.121 km
Perigee altitude
414.891 km
Semi-major axis
6,794.143 km
Eccentricity
0.00016
Inclination
97.284°
RAAN
10.0694°
Arg. of periapsis
109.4919°
True anomaly
250.63316°
Mean anomaly
250.6509°
Eccentric anomaly
250.64203°
Mean motion
3.87562 °/min
Orbital period
92.89 mins
BSTAR
0.0012454
Loading maneuver chart data...
Computing Atmospheric mass density...
Loading historical data...
Loading historical data...
Loading historical data...
Loading historical data...
Loading historical data...
Loading historical data...
Loading historical data...

Documentation

Showing up to 5 results
|